AAL2487 KCLT-KPBI

Flight info

Callsign AAL2487
Flight time 1h 35m
Altitude 36000
Route ICONS5 NOOKS WURFL Q83 JEVED Q97 KENLL CPTAN3
Aircraft B738/M-SDE2E3FGHIRWXY/LB1

Departure

Time 2026-04-18 03:36
Airport Charlotte Douglas International Airport (KCLT)

Arrival

Time 2026-04-18 05:12
Airport Palm Beach International Airport (KPBI)
Time Latitude Longitude Altitude Speed Heading
2026-04-18 03:00 35.21796 -80.94287 731 ft 0 kts 70°
2026-04-18 03:25 35.21793 -80.94296 730 ft 4 kts 64°
2026-04-18 03:25 35.21777 -80.94321 730 ft 4 kts 50°
2026-04-18 03:25 35.21763 -80.94347 731 ft 4 kts 75°
2026-04-18 03:26 35.21764 -80.94373 731 ft 4 kts 140°
2026-04-18 03:26 35.21782 -80.94382 728 ft 2 kts 176°
2026-04-18 03:26 35.21803 -80.94384 731 ft 0 kts 176°
2026-04-18 03:29 35.21763 -80.94381 731 ft 13 kts 175°
2026-04-18 03:29 35.21675 -80.94372 731 ft 10 kts 173°
2026-04-18 03:29 35.21637 -80.94316 730 ft 9 kts 99°
2026-04-18 03:30 35.21629 -80.94231 731 ft 11 kts 92°
2026-04-18 03:30 35.21656 -80.94148 731 ft 10 kts 49°
2026-04-18 03:30 35.21702 -80.94087 731 ft 10 kts 49°
2026-04-18 03:30 35.21709 -80.94003 730 ft 13 kts 125°
2026-04-18 03:31 35.21632 -80.93916 732 ft 17 kts 139°
2026-04-18 03:31 35.21542 -80.93819 731 ft 17 kts 138°
2026-04-18 03:31 35.21457 -80.93726 732 ft 15 kts 139°
2026-04-18 03:31 35.21379 -80.93658 732 ft 13 kts 167°
2026-04-18 03:32 35.21295 -80.93652 732 ft 11 kts 176°
2026-04-18 03:32 35.21220 -80.93645 732 ft 10 kts 175°
2026-04-18 03:32 35.21151 -80.93638 732 ft 11 kts 175°
2026-04-18 03:32 35.21045 -80.93630 732 ft 19 kts 176°
2026-04-18 03:33 35.20911 -80.93618 732 ft 19 kts 176°
2026-04-18 03:33 35.20777 -80.93607 730 ft 19 kts 176°
2026-04-18 03:33 35.20642 -80.93595 732 ft 20 kts 176°
2026-04-18 03:33 35.20506 -80.93584 732 ft 20 kts 176°
2026-04-18 03:34 35.20367 -80.93572 732 ft 20 kts 176°
2026-04-18 03:34 35.20226 -80.93559 732 ft 21 kts 175°
2026-04-18 03:34 35.20126 -80.93543 732 ft 8 kts 156°
2026-04-18 03:34 35.20106 -80.93516 732 ft 0 kts 112°
2026-04-18 03:35 35.20105 -80.93515 732 ft 0 kts 111°
2026-04-18 03:35 35.20105 -80.93468 733 ft 8 kts 80°
2026-04-18 03:35 35.20157 -80.93418 733 ft 15 kts 353°
2026-04-18 03:36 35.20355 -80.93437 736 ft 56 kts 356°
2026-04-18 03:36 35.20976 -80.93490 732 ft 121 kts 356°
2026-04-18 03:36 35.22004 -80.93582 749 ft 172 kts 355°
2026-04-18 03:36 35.23230 -80.93708 1371 ft 173 kts 354°
2026-04-18 03:37 35.24399 -80.93869 2167 ft 170 kts 352°
2026-04-18 03:37 35.25654 -80.93926 2483 ft 197 kts
2026-04-18 03:37 35.27052 -80.93438 2842 ft 215 kts 25°
2026-04-18 03:37 35.28252 -80.92309 3267 ft 225 kts 55°
2026-04-18 03:38 35.28848 -80.90495 3527 ft 240 kts 84°
2026-04-18 03:38 35.28693 -80.88436 3922 ft 251 kts 109°
2026-04-18 03:38 35.27848 -80.86449 4140 ft 277 kts 127°
2026-04-18 03:38 35.26573 -80.84686 4976 ft 272 kts 135°
2026-04-18 03:39 35.25171 -80.83196 5935 ft 268 kts 148°
2026-04-18 03:39 35.23432 -80.82245 6473 ft 279 kts 163°
2026-04-18 03:39 35.21589 -80.81512 7276 ft 275 kts 161°
2026-04-18 03:39 35.19774 -80.80684 7809 ft 287 kts 159°
2026-04-18 03:40 35.17896 -80.79799 7859 ft 288 kts 159°
2026-04-18 03:40 35.16008 -80.78990 8243 ft 288 kts 170°
2026-04-18 03:40 35.13995 -80.79055 8803 ft 294 kts 195°
2026-04-18 03:40 35.12065 -80.79906 9500 ft 297 kts 203°
2026-04-18 03:41 35.10150 -80.80902 10151 ft 301 kts 204°
2026-04-18 03:41 35.08223 -80.81927 10825 ft 303 kts 204°
2026-04-18 03:41 35.06287 -80.82953 11549 ft 303 kts 204°
2026-04-18 03:41 35.04345 -80.83974 12267 ft 305 kts 204°
2026-04-18 03:42 35.02388 -80.84993 12988 ft 307 kts 204°
2026-04-18 03:42 35.00415 -80.86015 13729 ft 309 kts 204°
2026-04-18 03:42 34.98418 -80.87045 14235 ft 319 kts 204°
2026-04-18 03:42 34.96300 -80.88136 14373 ft 341 kts 204°
2026-04-18 03:43 34.94076 -80.89279 14750 ft 352 kts 204°
2026-04-18 03:43 34.91802 -80.90445 15336 ft 357 kts 204°
2026-04-18 03:43 34.89504 -80.91621 15960 ft 360 kts 205°
2026-04-18 03:43 34.87180 -80.92811 16554 ft 364 kts 205°
2026-04-18 03:44 34.84830 -80.94013 17174 ft 368 kts 205°
2026-04-18 03:44 34.82458 -80.95226 17804 ft 372 kts 205°
2026-04-18 03:44 34.80015 -80.96313 18380 ft 378 kts 197°
2026-04-18 03:44 34.77403 -80.96868 18884 ft 385 kts 186°
2026-04-18 03:45 34.74709 -80.96977 19410 ft 390 kts 184°
2026-04-18 03:45 34.72014 -80.97013 19905 ft 394 kts 183°
2026-04-18 03:45 34.69220 -80.97053 20420 ft 398 kts 184°
2026-04-18 03:45 34.66473 -80.97119 20916 ft 402 kts 185°
2026-04-18 03:46 34.63661 -80.97204 21382 ft 407 kts 185°
2026-04-18 03:46 34.60813 -80.97312 21823 ft 411 kts 186°
2026-04-18 03:46 34.57952 -80.97535 22298 ft 414 kts 188°
2026-04-18 03:46 34.55068 -80.97822 22782 ft 417 kts 189°
2026-04-18 03:47 34.52165 -80.98126 23238 ft 421 kts 189°
2026-04-18 03:47 34.49238 -80.98429 23677 ft 425 kts 189°
2026-04-18 03:47 34.46279 -80.98725 24063 ft 428 kts 189°
2026-04-18 03:47 34.43305 -80.99013 24485 ft 430 kts 189°
2026-04-18 03:48 34.40309 -80.99297 24885 ft 433 kts 189°
2026-04-18 03:48 34.37262 -80.99585 24935 ft 446 kts 189°
2026-04-18 03:48 34.34130 -80.99880 25017 ft 457 kts 189°
2026-04-18 03:48 34.30924 -81.00180 25083 ft 467 kts 189°
2026-04-18 03:49 34.27650 -81.00484 25148 ft 476 kts 189°
2026-04-18 03:49 34.24324 -81.00791 25324 ft 481 kts 189°
2026-04-18 03:49 34.20978 -81.01098 25629 ft 483 kts 189°
2026-04-18 03:49 34.17623 -81.01406 25954 ft 484 kts 189°
2026-04-18 03:50 34.14259 -81.01716 26231 ft 486 kts 189°
2026-04-18 03:50 34.10876 -81.02029 26468 ft 489 kts 189°
2026-04-18 03:50 34.07474 -81.02344 26709 ft 492 kts 189°
2026-04-18 03:50 34.04054 -81.02660 26987 ft 494 kts 189°
2026-04-18 03:51 34.00617 -81.02978 27265 ft 496 kts 189°
2026-04-18 03:51 33.97166 -81.03249 27524 ft 500 kts 187°
2026-04-18 03:51 33.93677 -81.03298 27778 ft 503 kts 185°
2026-04-18 03:51 33.90168 -81.03261 28030 ft 505 kts 184°
2026-04-18 03:52 33.86647 -81.03192 28253 ft 507 kts 184°
2026-04-18 03:52 33.83107 -81.03119 28514 ft 509 kts 184°
2026-04-18 03:52 33.79566 -81.03055 28756 ft 510 kts 184°
2026-04-18 03:52 33.76010 -81.03004 29001 ft 512 kts 185°
2026-04-18 03:53 33.72451 -81.02962 29344 ft 511 kts 185°
2026-04-18 03:53 33.68902 -81.02927 29735 ft 509 kts 185°
2026-04-18 03:53 33.65362 -81.02895 30111 ft 508 kts 185°
2026-04-18 03:53 33.61829 -81.02863 30381 ft 508 kts 185°
2026-04-18 03:54 33.58299 -81.02829 30722 ft 506 kts 185°
2026-04-18 03:54 33.54782 -81.02794 31101 ft 504 kts 185°
2026-04-18 03:54 33.51284 -81.02761 31448 ft 502 kts 185°
2026-04-18 03:54 33.47789 -81.02730 31750 ft 502 kts 185°
2026-04-18 03:55 33.44297 -81.02699 32065 ft 501 kts 185°
2026-04-18 03:55 33.40814 -81.02668 32383 ft 500 kts 185°
2026-04-18 03:55 33.37338 -81.02637 32711 ft 499 kts 186°
2026-04-18 03:55 33.33870 -81.02606 33019 ft 498 kts 186°
2026-04-18 03:56 33.30403 -81.02575 33287 ft 498 kts 186°
2026-04-18 03:56 33.26986 -81.02545 33557 ft 498 kts 186°
2026-04-18 03:56 33.23529 -81.02514 33861 ft 496 kts 186°
2026-04-18 03:56 33.20081 -81.02483 34152 ft 495 kts 186°
2026-04-18 03:57 33.13197 -81.02421 34603 ft 495 kts 186°
2026-04-18 03:57 33.09754 -81.02391 34829 ft 494 kts 186°
2026-04-18 03:57 33.06316 -81.02361 35043 ft 494 kts 186°
2026-04-18 03:58 33.02884 -81.02330 35292 ft 493 kts 186°
2026-04-18 03:58 32.99450 -81.02300 35500 ft 493 kts 186°
2026-04-18 03:58 32.96020 -81.02269 35702 ft 493 kts 186°
2026-04-18 03:58 32.92589 -81.02239 35921 ft 493 kts 186°
2026-04-18 03:59 32.89161 -81.02209 36027 ft 494 kts 186°
2026-04-18 03:59 32.82270 -81.02150 36007 ft 494 kts 186°
2026-04-18 04:00 32.75412 -81.02087 36018 ft 491 kts 186°
2026-04-18 04:00 32.68587 -81.02028 36032 ft 490 kts 186°
2026-04-18 04:01 32.61775 -81.01971 36037 ft 489 kts 186°
2026-04-18 04:01 32.54970 -81.01914 36020 ft 489 kts 186°
2026-04-18 04:02 32.48170 -81.01926 36033 ft 489 kts 187°
2026-04-18 04:02 32.41364 -81.02069 36043 ft 490 kts 187°
2026-04-18 04:03 32.34532 -81.02199 36043 ft 492 kts 187°
2026-04-18 04:03 32.27666 -81.02310 36034 ft 494 kts 187°
2026-04-18 04:04 32.20783 -81.02426 36045 ft 495 kts 187°
2026-04-18 04:04 32.13877 -81.02549 36048 ft 497 kts 187°
2026-04-18 04:05 32.06953 -81.02673 36016 ft 498 kts 187°
2026-04-18 04:05 32.00060 -81.02794 35995 ft 499 kts 187°
2026-04-18 04:06 31.93128 -81.02968 36021 ft 498 kts 188°
2026-04-18 04:06 31.86187 -81.03184 36023 ft 499 kts 188°
2026-04-18 04:07 31.79250 -81.03394 36024 ft 499 kts 188°
2026-04-18 04:07 31.72305 -81.03597 36017 ft 499 kts 188°
2026-04-18 04:08 31.65368 -81.03800 36037 ft 499 kts 188°
2026-04-18 04:08 31.58425 -81.04002 36042 ft 499 kts 188°
2026-04-18 04:09 31.52674 -81.04298 36043 ft 497 kts 190°
2026-04-18 04:09 31.45773 -81.04775 36029 ft 497 kts 190°
2026-04-18 04:10 31.38871 -81.05234 36050 ft 497 kts 189°
2026-04-18 04:10 31.31958 -81.05668 36056 ft 497 kts 189°
2026-04-18 04:11 31.25045 -81.06099 36058 ft 498 kts 189°
2026-04-18 04:11 31.18098 -81.06341 36044 ft 500 kts 187°
2026-04-18 04:12 31.11135 -81.06423 36057 ft 501 kts 187°
2026-04-18 04:12 31.04166 -81.06529 36061 ft 501 kts 187°
2026-04-18 04:13 30.97195 -81.06669 36057 ft 501 kts 187°
2026-04-18 04:13 30.90215 -81.06819 36047 ft 502 kts 187°
2026-04-18 04:14 30.83235 -81.06967 36065 ft 502 kts 187°
2026-04-18 04:14 30.76243 -81.07113 36063 ft 503 kts 187°
2026-04-18 04:15 30.69244 -81.07260 36066 ft 503 kts 187°
2026-04-18 04:15 30.62244 -81.07408 36049 ft 503 kts 187°
2026-04-18 04:16 30.55271 -81.07750 36068 ft 501 kts 189°
2026-04-18 04:16 30.48349 -81.08212 36066 ft 502 kts 189°
2026-04-18 04:17 30.41373 -81.08661 36067 ft 502 kts 189°
2026-04-18 04:17 30.34389 -81.09083 36069 ft 503 kts 189°
2026-04-18 04:18 30.27395 -81.09497 36068 ft 503 kts 189°
2026-04-18 04:18 30.20396 -81.09910 36073 ft 503 kts 189°
2026-04-18 04:19 30.13401 -81.10325 36078 ft 503 kts 189°
2026-04-18 04:19 30.06406 -81.10740 36065 ft 503 kts 189°
2026-04-18 04:20 29.99412 -81.11154 36083 ft 503 kts 189°
2026-04-18 04:20 29.92421 -81.11568 36088 ft 503 kts 189°
2026-04-18 04:21 29.85426 -81.11983 36088 ft 503 kts 189°
2026-04-18 04:21 29.78423 -81.12330 36075 ft 505 kts 186°
2026-04-18 04:22 29.71382 -81.12330 36085 ft 506 kts 185°
2026-04-18 04:22 29.64334 -81.12333 36082 ft 506 kts 186°
2026-04-18 04:23 29.57280 -81.12238 36069 ft 513 kts 175°
2026-04-18 04:23 29.53816 -81.11143 36115 ft 519 kts 162°
2026-04-18 04:23 29.50435 -81.09676 36091 ft 520 kts 161°
2026-04-18 04:24 29.43678 -81.06710 36101 ft 520 kts 162°
2026-04-18 04:24 29.36880 -81.03833 36082 ft 521 kts 163°
2026-04-18 04:25 29.30109 -81.01036 36083 ft 521 kts 163°
2026-04-18 04:25 29.23281 -80.98229 36086 ft 521 kts 163°
2026-04-18 04:26 29.16455 -80.95419 36107 ft 521 kts 163°
2026-04-18 04:26 29.09628 -80.92609 36086 ft 522 kts 163°
2026-04-18 04:27 29.02793 -80.89801 36088 ft 522 kts 163°
2026-04-18 04:27 28.95960 -80.86997 36074 ft 522 kts 163°
2026-04-18 04:28 28.89128 -80.84199 36072 ft 521 kts 162°
2026-04-18 04:28 28.82305 -80.81410 36073 ft 521 kts 162°
2026-04-18 04:29 28.75482 -80.78628 36078 ft 521 kts 162°
2026-04-18 04:29 28.68662 -80.75851 36073 ft 520 kts 162°
2026-04-18 04:29 28.65241 -80.74459 35873 ft 524 kts 162°
2026-04-18 04:30 28.61807 -80.73062 35613 ft 523 kts 162°
2026-04-18 04:30 28.58387 -80.71670 35369 ft 521 kts 162°
2026-04-18 04:30 28.54987 -80.70287 35105 ft 517 kts 163°
2026-04-18 04:30 28.51599 -80.68911 34861 ft 517 kts 163°
2026-04-18 04:31 28.48205 -80.67535 34662 ft 519 kts 163°
2026-04-18 04:31 28.44807 -80.66158 33959 ft 521 kts 163°
2026-04-18 04:31 28.41380 -80.64772 33188 ft 523 kts 163°
2026-04-18 04:31 28.37938 -80.63380 32377 ft 526 kts 163°
2026-04-18 04:32 28.34490 -80.61986 31595 ft 527 kts 163°
2026-04-18 04:32 28.31029 -80.60587 30792 ft 528 kts 162°
2026-04-18 04:32 28.27608 -80.59205 29962 ft 529 kts 162°
2026-04-18 04:32 28.24140 -80.57805 28954 ft 530 kts 162°
2026-04-18 04:33 28.20668 -80.56405 28176 ft 527 kts 162°
2026-04-18 04:33 28.17243 -80.55023 27579 ft 520 kts 162°
2026-04-18 04:33 28.13855 -80.53657 26977 ft 514 kts 162°
2026-04-18 04:33 28.10507 -80.52309 26401 ft 508 kts 162°
2026-04-18 04:34 28.07194 -80.50976 25815 ft 503 kts 161°
2026-04-18 04:34 28.03912 -80.49657 25214 ft 498 kts 161°
2026-04-18 04:34 28.00661 -80.48352 24672 ft 493 kts 161°
2026-04-18 04:34 27.97480 -80.47075 24488 ft 478 kts 161°
2026-04-18 04:35 27.94380 -80.45831 24267 ft 466 kts 161°
2026-04-18 04:35 27.91358 -80.44618 24027 ft 456 kts 161°
2026-04-18 04:35 27.88361 -80.43415 23238 ft 459 kts 161°
2026-04-18 04:35 27.85351 -80.42208 22527 ft 459 kts 161°
2026-04-18 04:36 27.82341 -80.41001 21829 ft 459 kts 161°
2026-04-18 04:36 27.79337 -80.39797 21141 ft 458 kts 161°
2026-04-18 04:36 27.76339 -80.38597 20457 ft 456 kts 161°
2026-04-18 04:36 27.73353 -80.37403 19766 ft 455 kts 161°
2026-04-18 04:37 27.70373 -80.36211 19073 ft 453 kts 161°
2026-04-18 04:37 27.67409 -80.35026 18391 ft 451 kts 161°
2026-04-18 04:37 27.64484 -80.33756 17670 ft 449 kts 157°
2026-04-18 04:37 27.61666 -80.32292 16991 ft 444 kts 155°
2026-04-18 04:38 27.58899 -80.30768 16321 ft 440 kts 154°
2026-04-18 04:38 27.56164 -80.29259 15707 ft 435 kts 154°
2026-04-18 04:38 27.53463 -80.27802 15090 ft 424 kts 155°
2026-04-18 04:38 27.50841 -80.26413 14514 ft 409 kts 155°
2026-04-18 04:39 27.48306 -80.25079 13960 ft 396 kts 155°
2026-04-18 04:39 27.45856 -80.23791 13516 ft 385 kts 155°
2026-04-18 04:39 27.43446 -80.22523 13075 ft 380 kts 155°
2026-04-18 04:39 27.41069 -80.21272 12645 ft 375 kts 155°
2026-04-18 04:40 27.38725 -80.20039 12250 ft 370 kts 154°
2026-04-18 04:40 27.36406 -80.18819 11858 ft 366 kts 154°
2026-04-18 04:40 27.34115 -80.17615 11461 ft 361 kts 154°
2026-04-18 04:40 27.31851 -80.16426 11075 ft 357 kts 154°
2026-04-18 04:41 27.29608 -80.15248 10692 ft 354 kts 154°
2026-04-18 04:41 27.27389 -80.14083 10314 ft 351 kts 154°
2026-04-18 04:41 27.25217 -80.12947 9914 ft 348 kts 154°
2026-04-18 04:41 27.23045 -80.11878 9901 ft 333 kts 156°
2026-04-18 04:42 27.20959 -80.10878 9842 ft 320 kts 156°
2026-04-18 04:42 27.18942 -80.09911 9747 ft 309 kts 156°
2026-04-18 04:42 27.17003 -80.08975 9662 ft 299 kts 155°
2026-04-18 04:42 27.15121 -80.08065 9544 ft 290 kts 155°
2026-04-18 04:43 27.13278 -80.07171 9279 ft 287 kts 155°
2026-04-18 04:43 27.11453 -80.06271 8974 ft 287 kts 155°
2026-04-18 04:43 27.09641 -80.05371 8758 ft 283 kts 155°
2026-04-18 04:43 27.07850 -80.04483 8482 ft 281 kts 155°
2026-04-18 04:44 27.06055 -80.03593 8109 ft 283 kts 156°
2026-04-18 04:44 27.04260 -80.02705 7873 ft 280 kts 156°
2026-04-18 04:44 27.02474 -80.01821 7544 ft 281 kts 156°
2026-04-18 04:44 27.00687 -80.00938 7300 ft 279 kts 156°
2026-04-18 04:45 26.98923 -80.00066 7066 ft 276 kts 156°
2026-04-18 04:45 26.97156 -79.99205 6787 ft 276 kts 160°
2026-04-18 04:45 26.95286 -79.98931 6484 ft 272 kts 191°
2026-04-18 04:45 26.93539 -79.99660 6222 ft 267 kts 214°
2026-04-18 04:46 26.92049 -80.00880 5929 ft 265 kts 220°
2026-04-18 04:46 26.90605 -80.02160 5640 ft 264 kts 219°
2026-04-18 04:46 26.89163 -80.03430 5365 ft 264 kts 219°
2026-04-18 04:46 26.87715 -80.04690 5075 ft 263 kts 219°
2026-04-18 04:47 26.86266 -80.05941 4810 ft 262 kts 219°
2026-04-18 04:47 26.84837 -80.07171 4666 ft 255 kts 218°
2026-04-18 04:47 26.83454 -80.08370 4533 ft 248 kts 219°
2026-04-18 04:47 26.82116 -80.09535 4446 ft 240 kts 218°
2026-04-18 04:48 26.80947 -80.10822 4278 ft 233 kts 241°
2026-04-18 04:48 26.80490 -80.12522 4111 ft 228 kts 263°
2026-04-18 04:48 26.80350 -80.14300 4036 ft 230 kts 266°
2026-04-18 04:48 26.80237 -80.16087 3999 ft 230 kts 265°
2026-04-18 04:49 26.80120 -80.17866 4000 ft 229 kts 265°
2026-04-18 04:49 26.79998 -80.19635 3991 ft 227 kts 265°
2026-04-18 04:49 26.79879 -80.21408 3922 ft 230 kts 265°
2026-04-18 04:49 26.79758 -80.23206 3833 ft 233 kts 265°
2026-04-18 04:50 26.79737 -80.24993 3745 ft 233 kts 271°
2026-04-18 04:50 26.79807 -80.26816 3654 ft 229 kts 272°
2026-04-18 04:50 26.79883 -80.28561 3568 ft 226 kts 272°
2026-04-18 04:50 26.79963 -80.30321 3511 ft 227 kts 272°
2026-04-18 04:51 26.80048 -80.32088 3451 ft 228 kts 272°
2026-04-18 04:51 26.80132 -80.33857 3411 ft 227 kts 271°
2026-04-18 04:51 26.79867 -80.35570 3364 ft 225 kts 240°
2026-04-18 04:51 26.78827 -80.36811 3347 ft 220 kts 206°
2026-04-18 04:52 26.77365 -80.37253 3328 ft 218 kts 185°
2026-04-18 04:52 26.75883 -80.37386 3288 ft 209 kts 177°
2026-04-18 04:52 26.74461 -80.37260 3208 ft 203 kts 173°
2026-04-18 04:52 26.73079 -80.37035 3140 ft 200 kts 159°
2026-04-18 04:53 26.72000 -80.36129 3126 ft 195 kts 124°
2026-04-18 04:53 26.71254 -80.34848 3086 ft 199 kts 122°
2026-04-18 04:53 26.70491 -80.33543 3024 ft 200 kts 123°
2026-04-18 04:53 26.69742 -80.32262 3017 ft 194 kts 122°
2026-04-18 04:54 26.69177 -80.30913 2991 ft 192 kts 96°
2026-04-18 04:54 26.69225 -80.29427 3009 ft 192 kts 90°
2026-04-18 04:54 26.69077 -80.27930 2962 ft 196 kts 97°
2026-04-18 04:54 26.68988 -80.26396 2752 ft 197 kts 92°
2026-04-18 04:55 26.68937 -80.24879 2508 ft 192 kts 93°
2026-04-18 04:55 26.68878 -80.23444 2262 ft 177 kts 93°
2026-04-18 04:55 26.68821 -80.22141 2039 ft 159 kts 93°
2026-04-18 04:56 26.68719 -80.19841 1637 ft 143 kts 93°
2026-04-18 04:56 26.68680 -80.18743 1441 ft 140 kts 92°
2026-04-18 04:56 26.68631 -80.17663 1258 ft 139 kts 93°
2026-04-18 04:56 26.68587 -80.16580 1082 ft 138 kts 93°
2026-04-18 04:57 26.68537 -80.15516 925 ft 138 kts 92°
2026-04-18 04:57 26.68492 -80.14418 752 ft 146 kts 92°
2026-04-18 04:57 26.68459 -80.13657 619 ft 148 kts 92°
2026-04-18 04:57 26.68393 -80.12119 407 ft 147 kts 90°
2026-04-18 04:58 26.68361 -80.11383 260 ft 139 kts 90°
2026-04-18 04:58 26.68306 -80.10349 32 ft 127 kts 91°
2026-04-18 04:58 26.68268 -80.09362 180 ft 141 kts 92°
2026-04-18 04:58 26.68207 -80.08293 1225 ft 126 kts 92°
2026-04-18 04:59 26.68155 -80.07237 1683 ft 154 kts 92°
2026-04-18 04:59 26.68098 -80.05993 1988 ft 169 kts 93°
2026-04-18 04:59 26.68291 -80.04610 1935 ft 199 kts 64°
2026-04-18 04:59 26.69355 -80.03430 2039 ft 237 kts 30°
2026-04-18 05:00 26.71052 -80.02988 2246 ft 267 kts
2026-04-18 05:00 26.72906 -80.03113 2464 ft 260 kts 354°
2026-04-18 05:00 26.74568 -80.03785 2477 ft 254 kts 325°
2026-04-18 05:00 26.75675 -80.05230 2475 ft 242 kts 294°
2026-04-18 05:01 26.76012 -80.07026 2488 ft 235 kts 273°
2026-04-18 05:01 26.76079 -80.08836 2472 ft 231 kts 271°
2026-04-18 05:01 26.76161 -80.10631 2482 ft 233 kts 272°
2026-04-18 05:01 26.76247 -80.12450 2480 ft 237 kts 272°
2026-04-18 05:02 26.76346 -80.14321 2489 ft 242 kts 272°
2026-04-18 05:02 26.76446 -80.16207 2480 ft 243 kts 272°
2026-04-18 05:02 26.76543 -80.18091 2478 ft 241 kts 272°
2026-04-18 05:02 26.76640 -80.19963 2475 ft 241 kts 272°
2026-04-18 05:03 26.76740 -80.21833 2470 ft 240 kts 272°
2026-04-18 05:03 26.76839 -80.23693 2474 ft 239 kts 272°
2026-04-18 05:03 26.76936 -80.25527 2474 ft 238 kts 272°
2026-04-18 05:03 26.77033 -80.27349 2460 ft 231 kts 272°
2026-04-18 05:04 26.77128 -80.29145 2487 ft 226 kts 272°
2026-04-18 05:04 26.77222 -80.30883 2494 ft 228 kts 272°
2026-04-18 05:04 26.77318 -80.32657 2525 ft 229 kts 272°
2026-04-18 05:04 26.77415 -80.34427 2549 ft 226 kts 272°
2026-04-18 05:05 26.77467 -80.36153 2547 ft 218 kts 262°
2026-04-18 05:05 26.76900 -80.37653 2525 ft 209 kts 225°
2026-04-18 05:05 26.75681 -80.38467 2492 ft 206 kts 190°
2026-04-18 05:05 26.74251 -80.38689 2519 ft 209 kts 183°
2026-04-18 05:06 26.72806 -80.38834 2546 ft 208 kts 179°
2026-04-18 05:06 26.71436 -80.38449 2553 ft 204 kts 144°
2026-04-18 05:06 26.70561 -80.37281 2548 ft 193 kts 116°
2026-04-18 05:06 26.70022 -80.35937 2538 ft 187 kts 113°
2026-04-18 05:07 26.69514 -80.34613 2543 ft 185 kts 111°
2026-04-18 05:07 26.69287 -80.33205 2555 ft 186 kts 89°
2026-04-18 05:07 26.69283 -80.31748 2553 ft 188 kts 94°
2026-04-18 05:07 26.69200 -80.30314 2559 ft 182 kts 94°
2026-04-18 05:08 26.69126 -80.28906 2542 ft 181 kts 94°
2026-04-18 05:08 26.69060 -80.27498 2550 ft 182 kts 93°
2026-04-18 05:08 26.68996 -80.26079 2544 ft 183 kts 94°
2026-04-18 05:08 26.68932 -80.24649 2439 ft 186 kts 94°
2026-04-18 05:09 26.68869 -80.23231 2212 ft 176 kts 93°
2026-04-18 05:09 26.68811 -80.21929 2018 ft 158 kts 94°
2026-04-18 05:09 26.68759 -80.20749 1799 ft 147 kts 94°
2026-04-18 05:09 26.68708 -80.19622 1607 ft 144 kts 93°
2026-04-18 05:10 26.68659 -80.18505 1425 ft 145 kts 93°
2026-04-18 05:10 26.68611 -80.17377 1230 ft 146 kts 93°
2026-04-18 05:10 26.68560 -80.16244 1051 ft 146 kts 93°
2026-04-18 05:10 26.68514 -80.15104 881 ft 149 kts 93°
2026-04-18 05:11 26.68466 -80.13934 670 ft 151 kts 93°
2026-04-18 05:11 26.68407 -80.12754 473 ft 153 kts 92°
2026-04-18 05:11 26.68357 -80.11562 277 ft 152 kts 91°
2026-04-18 05:11 26.68306 -80.10399 58 ft 147 kts 92°
2026-04-18 05:12 26.68262 -80.09330 27 ft 120 kts 95°
2026-04-18 05:12 26.68224 -80.08640 25 ft 57 kts 94°
2026-04-18 05:12 26.68211 -80.08300 25 ft 36 kts 92°
2026-04-18 05:12 26.68269 -80.08160 26 ft 17 kts
2026-04-18 05:13 26.68314 -80.08225 25 ft 6 kts 263°
2026-04-18 05:13 26.68318 -80.08272 26 ft 7 kts 276°
2026-04-18 05:13 26.68323 -80.08340 25 ft 12 kts 273°
2026-04-18 05:13 26.68328 -80.08462 25 ft 17 kts 272°
2026-04-18 05:14 26.68334 -80.08589 25 ft 16 kts 272°
2026-04-18 05:14 26.68350 -80.08703 25 ft 13 kts 308°
2026-04-18 05:14 26.68422 -80.08730 25 ft 8 kts 324°
2026-04-18 05:14 26.68439 -80.08785 25 ft 7 kts 274°
2026-04-18 05:15 26.68440 -80.08843 25 ft 8 kts 271°
2026-04-18 05:15 26.68447 -80.08905 25 ft 8 kts 287°
2026-04-18 05:15 26.68484 -80.08935 25 ft 7 kts 358°
2026-04-18 05:15 26.68513 -80.08934 26 ft 1 kts
2026-04-18 05:16 26.68520 -80.08933 26 ft 1 kts
2026-04-18 05:16 26.68522 -80.08933 26 ft 0 kts